Previsão horária em Cerekiew

Hoje, 30 Julho, Sexta-feira

Tempo Temperatura Precipitação Vento Pressão Humidade
00:00 +21°C° 0 mm 2 m/s 743 mmHg 63%
01:00 +22°C° 0 mm 1 m/s 743 mmHg 61%
02:00 +22°C° 0 mm 1 m/s 743 mmHg 61%
03:00 +21°C° 0 mm 1 m/s 743 mmHg 61%
04:00 +21°C° 0 mm 1 m/s 743 mmHg 60%
05:00 +21°C° 0 mm 2 m/s 743 mmHg 60%
06:00 +22°C° 0 mm 3 m/s 743 mmHg 60%
07:00 +22°C° 0 mm 3 m/s 743 mmHg 60%
08:00 +23°C° 0 mm 4 m/s 743 mmHg 55%
09:00 +26°C° 0 mm 4 m/s 743 mmHg 51%
10:00 +27°C° 0 mm 4 m/s 743 mmHg 47%
11:00 +27°C° 0 mm 5 m/s 743 mmHg 44%
12:00 +28°C° 0 mm 5 m/s 742 mmHg 41%
13:00 +29°C° 0 mm 5 m/s 742 mmHg 38%
14:00 +29°C° 0 mm 5 m/s 742 mmHg 38%
15:00 +29°C° 0 mm 5 m/s 742 mmHg 38%
16:00 +29°C° 0 mm 5 m/s 741 mmHg 38%
17:00 +27°C° 0 mm 3 m/s 741 mmHg 45%
18:00 +26°C° 0 mm 2 m/s 741 mmHg 52%
19:00 +24°C° 0 mm 1 m/s 741 mmHg 59%
20:00 +23°C° 0 mm 1 m/s 741 mmHg 61%
21:00 +22°C° 0 mm 1 m/s 741 mmHg 62%
22:00 +21°C° 0 mm 1 m/s 741 mmHg 64%
23:00 +21°C° 0 mm 1 m/s 741 mmHg 65%

Amanhã, 31 Julho, Sábado

Tempo Temperatura Precipitação Vento Pressão Humidade
00:00 +21°C° 0 mm 1 m/s 741 mmHg 66%
01:00 +20°C° 0 mm 1 m/s 741 mmHg 67%
02:00 +20°C° 0 mm 1 m/s 741 mmHg 68%
03:00 +20°C° 0 mm 1 m/s 741 mmHg 68%
04:00 +19°C° 0 mm 1 m/s 741 mmHg 69%
05:00 +21°C° 0 mm 1 m/s 741 mmHg 64%
06:00 +23°C° 0 mm 1 m/s 741 mmHg 60%
07:00 +25°C° 0 mm 1 m/s 741 mmHg 55%
08:00 +26°C° 0 mm 1 m/s 741 mmHg 51%
09:00 +28°C° 0 mm 2 m/s 740 mmHg 47%
10:00 +30°C° 0 mm 2 m/s 740 mmHg 43%
11:00 +28°C° 0.8 mm 3 m/s 740 mmHg 52%
12:00 +27°C° 0.8 mm 5 m/s 740 mmHg 62%
13:00 +24°C° 0.8 mm 7 m/s 739 mmHg 72%
14:00 +23°C° 3.7 mm 5 m/s 739 mmHg 78%
15:00 +22°C° 3.7 mm 4 m/s 740 mmHg 83%
16:00 +21°C° 3.7 mm 3 m/s 740 mmHg 89%
17:00 +20°C° 0.4 mm 4 m/s 740 mmHg 88%
18:00 +20°C° 0.4 mm 4 m/s 740 mmHg 88%
19:00 +20°C° 0.4 mm 4 m/s 740 mmHg 88%
20:00 +20°C° 0 mm 4 m/s 741 mmHg 88%
21:00 +19°C° 0 mm 3 m/s 741 mmHg 89%
22:00 +19°C° 0 mm 3 m/s 741 mmHg 90%
23:00 +18°C° 0 mm 3 m/s 741 mmHg 90%

Depois de amanhã, 1 Agosto, Domingo

Tempo Temperatura Precipitação Vento Pressão Humidade
00:00 +18°C° 0 mm 3 m/s 741 mmHg 89%
01:00 +18°C° 0 mm 3 m/s 741 mmHg 89%
02:00 +17°C° 0 mm 2 m/s 741 mmHg 88%
03:00 +17°C° 0 mm 2 m/s 741 mmHg 86%
04:00 +16°C° 0 mm 2 m/s 741 mmHg 84%
05:00 +17°C° 0 mm 2 m/s 741 mmHg 78%
06:00 +20°C° 0 mm 1 m/s 742 mmHg 72%
07:00 +21°C° 0 mm 1 m/s 742 mmHg 66%
08:00 +22°C° 0 mm 1 m/s 742 mmHg 64%
09:00 +23°C° 0 mm 1 m/s 742 mmHg 62%
10:00 +23°C° 0 mm 1 m/s 741 mmHg 60%
11:00 +24°C° 0.1 mm 1 m/s 741 mmHg 58%
12:00 +25°C° 0.1 mm 1 m/s 741 mmHg 57%
13:00 +25°C° 0.1 mm 1 m/s 741 mmHg 56%
14:00 +24°C° 0.3 mm 2 m/s 741 mmHg 64%
15:00 +21°C° 0.3 mm 4 m/s 741 mmHg 71%
16:00 +19°C° 0.3 mm 5 m/s 740 mmHg 79%
17:00 +19°C° 0.5 mm 5 m/s 740 mmHg 81%
18:00 +18°C° 0.5 mm 4 m/s 740 mmHg 83%
19:00 +17°C° 0.5 mm 3 m/s 740 mmHg 85%
20:00 +17°C° 0 mm 3 m/s 740 mmHg 85%
21:00 +17°C° 0 mm 3 m/s 740 mmHg 85%
22:00 +17°C° 0 mm 2 m/s 740 mmHg 86%
23:00 +16°C° 0.1 mm 2 m/s 740 mmHg 86%

2 Agosto, Segunda-feira

Tempo Temperatura Precipitação Vento Pressão Humidade
00:00 +16°C° 0.1 mm 2 m/s 741 mmHg 87%
01:00 +16°C° 0.1 mm 2 m/s 741 mmHg 87%
02:00 +16°C° 0.1 mm 2 m/s 741 mmHg 86%
03:00 +16°C° 0.1 mm 2 m/s 741 mmHg 86%
04:00 +15°C° 0.1 mm 2 m/s 741 mmHg 85%
05:00 +16°C° 0.4 mm 2 m/s 741 mmHg 86%
06:00 +16°C° 0.4 mm 2 m/s 741 mmHg 87%
07:00 +16°C° 0.4 mm 3 m/s 741 mmHg 88%
08:00 +18°C° 0.1 mm 3 m/s 741 mmHg 78%
09:00 +20°C° 0.1 mm 3 m/s 742 mmHg 69%
10:00 +22°C° 0.1 mm 4 m/s 742 mmHg 59%
11:00 +23°C° 0.4 mm 4 m/s 742 mmHg 57%
12:00 +23°C° 0.4 mm 4 m/s 742 mmHg 54%
13:00 +25°C° 0.4 mm 4 m/s 742 mmHg 52%
14:00 +23°C° 0 mm 4 m/s 742 mmHg 53%
15:00 +23°C° 0 mm 4 m/s 742 mmHg 54%
16:00 +24°C° 0 mm 3 m/s 742 mmHg 55%
17:00 +22°C° 0 mm 3 m/s 743 mmHg 59%
18:00 +20°C° 0 mm 3 m/s 743 mmHg 63%
19:00 +19°C° 0 mm 3 m/s 743 mmHg 67%
20:00 +19°C° 0.1 mm 3 m/s 743 mmHg 71%
21:00 +18°C° 0.1 mm 3 m/s 744 mmHg 75%
22:00 +17°C° 0.1 mm 2 m/s 744 mmHg 80%
23:00 +16°C° 0 mm 3 m/s 744 mmHg 81%

3 Agosto, Terça-feira

Tempo Temperatura Precipitação Vento Pressão Humidade
00:00 +16°C° 0 mm 3 m/s 745 mmHg 82%
01:00 +14°C° 0 mm 3 m/s 745 mmHg 84%
02:00 +15°C° 0 mm 2 m/s 745 mmHg 81%
03:00 +16°C° 0 mm 2 m/s 745 mmHg 79%
04:00 +16°C° 0 mm 2 m/s 746 mmHg 76%
05:00 +17°C° 0 mm 3 m/s 746 mmHg 72%
06:00 +18°C° 0 mm 3 m/s 746 mmHg 68%
07:00 +19°C° 0 mm 4 m/s 747 mmHg 64%
08:00 +20°C° 0 mm 4 m/s 747 mmHg 57%
09:00 +21°C° 0 mm 4 m/s 747 mmHg 51%
10:00 +22°C° 0 mm 4 m/s 747 mmHg 44%
11:00 +23°C° 0 mm 4 m/s 747 mmHg 42%
12:00 +25°C° 0 mm 4 m/s 747 mmHg 40%
13:00 +25°C° 0 mm 4 m/s 747 mmHg 38%
14:00 +25°C° 0 mm 3 m/s 746 mmHg 38%
15:00 +25°C° 0 mm 3 m/s 746 mmHg 39%
16:00 +25°C° 0 mm 3 m/s 746 mmHg 39%
17:00 +24°C° 0 mm 2 m/s 746 mmHg 45%
18:00 +21°C° 0 mm 2 m/s 746 mmHg 51%
19:00 +20°C° 0 mm 2 m/s 746 mmHg 57%
20:00 +19°C° 0 mm 2 m/s 746 mmHg 58%
21:00 +18°C° 0 mm 2 m/s 746 mmHg 60%
22:00 +17°C° 0 mm 3 m/s 746 mmHg 62%
23:00 +17°C° 0 mm 3 m/s 746 mmHg 63%

4 Agosto, Quarta-feira

Tempo Temperatura Precipitação Vento Pressão Humidade
00:00 +17°C° 0 mm 3 m/s 746 mmHg 65%
01:00 +16°C° 0 mm 3 m/s 745 mmHg 66%
02:00 +16°C° 0 mm 3 m/s 745 mmHg 69%
03:00 +16°C° 0 mm 3 m/s 745 mmHg 72%
04:00 +15°C° 0 mm 2 m/s 745 mmHg 74%
05:00 +17°C° 0 mm 3 m/s 745 mmHg 73%
06:00 +18°C° 0 mm 3 m/s 745 mmHg 72%
07:00 +20°C° 0 mm 3 m/s 745 mmHg 70%
08:00 +21°C° 0.1 mm 3 m/s 745 mmHg 68%
09:00 +21°C° 0.1 mm 2 m/s 745 mmHg 66%
10:00 +23°C° 0.1 mm 2 m/s 744 mmHg 64%
11:00 +21°C° 0.6 mm 2 m/s 744 mmHg 71%
12:00 +20°C° 0.6 mm 2 m/s 744 mmHg 78%
13:00 +19°C° 0.6 mm 2 m/s 744 mmHg 86%
14:00 +18°C° 0.3 mm 2 m/s 744 mmHg 88%
15:00 +18°C° 0.3 mm 3 m/s 744 mmHg 89%
16:00 +17°C° 0.3 mm 3 m/s 744 mmHg 91%
17:00 +17°C° 0 mm 3 m/s 744 mmHg 92%
18:00 +16°C° 0 mm 3 m/s 745 mmHg 92%
19:00 +16°C° 0 mm 3 m/s 745 mmHg 93%
20:00 +14°C° 0 mm 3 m/s 745 mmHg 94%
21:00 +15°C° 0 mm 2 m/s 745 mmHg 96%
22:00 +14°C° 0 mm 2 m/s 745 mmHg 97%
23:00 +14°C° 0 mm 2 m/s 745 mmHg 97%
Mostrar mais

Necessitamos do seu Consentimento

A Meteoprog e os seus Fornecedores de Serviços podem armazenar e aceder a dados pessoais como cookies, identificadores do dispositivo ou outras tecnologias semelhantes existentes no seu dispositivo e processar estes dados para personalizar conteúdos e anúncios, assim como funcionalidades nas redes sociais e análise de tráfego.

  • Armazenar e/ou aceder a informações no seu dispositivo

    Os cookies, identificadores do dispositivo ou outras informações podem ser armazenados ou acedidos no seu dispositivo, para os fins acima indicados.

  • Anúncios e conteúdos personalizados, medição de anúncios e conteúdos, dados sobre o público-alvo e desenvolvimento de produtos

    Os anúncios e os conteúdos podem ser personalizados com base num perfil. Podem ser adicionados dados adicionais para uma maior personalização dos anúncios e dos conteúdos. A eficácia dos anúncios e dos conteúdos pode ser medida. Podem ser obtidas informações sobre o público que visualizou os anúncios e os conteúdos. Estes dados podem ser usados para desenvolver ou melhorar sistemas, softwares ou a experiência do utilizador.

Ao clicar em "Eu concordo”, permitirá o uso de cookies, identificadores do dispositivo e web beacons mencionados ou outras tecnologias semelhantes. As configurações do navegador do seu dispositivo podem ser alteradas.

Para certos fins, podem ser invocados interesses legítimos ao invés de consentimento. Pode ler mais informação sobre este assunto na nossa Política de Privacidade e Cookies.